Location: Malvern Link
(52.1333°N, 2.3000°W)
Time: 16:33:12
(UTC+00:00)

Cosmos 1634 Rocket - Pass Details

Date: 07 December 2021
Orbit: 959 x 993 km, 82.9° (Epoch: 23 January)

Event Time Altitude Azimuth Distance (km) Brightness Sun altitude
Exits shadow 03:40:40 35° 96° (E) 1,518 5.3 -38.9°
Drops below altitude 10° 03:45:09 10° 137° (SE) 2,713 6.6 -38.3°
Sets 03:47:49 0° 145° (SE) 3,651 7.3 -37.9°
